| time (UTC) | temp F | wind direction | speed MPH | gust MPH | rain 1hr in | rain 24hr in | rain mn in | humidity % | barometer mb |
| 20260507090333 | 36 | 360 | 3.0 | 5.0 | 0.00 | 0.00 | 0.00 | 74 | 1012.0 |
| 20260507085824 | 36 | 216 | 4.0 | 5.0 | 0.00 | 0.00 | 0.00 | 75 | 1011.9 |
| 20260507085332 | 36 | 360 | 4.0 | 5.0 | 0.00 | 0.00 | 0.00 | 75 | 1012.0 |
| 20260507084821 | 36 | 221 | 4.0 | 5.0 | 0.00 | 0.00 | 0.00 | 75 | 1012.0 |
| 20260507084332 | 37 | 360 | 3.0 | 5.0 | 0.00 | 0.00 | 0.00 | 75 | 1012.0 |
| 20260507083839 | 37 | 225 | 4.0 | 5.0 | 0.00 | 0.00 | 0.00 | 75 | 1011.9 |
| 20260507083328 | 37 | 360 | 3.0 | 5.0 | 0.00 | 0.00 | 0.00 | 74 | 1011.7 |
| 20260507082837 | 37 | 232 | 3.0 | 5.0 | 0.00 | 0.00 | 0.00 | 74 | 1011.9 |
| 20260507082346 | 37 | 230 | 4.0 | 5.0 | 0.00 | 0.00 | 0.00 | 75 | 1011.9 |
| 20260507081835 | 37 | 263 | 3.0 | 5.0 | 0.00 | 0.00 | 0.00 | 75 | 1011.8 |
| 20260507081328 | 36 | 265 | 3.0 | 5.0 | 0.00 | 0.00 | 0.00 | 75 | 1011.8 |
| 20260507080835 | 36 | 265 | 4.0 | 4.0 | 0.00 | 0.00 | 0.00 | 75 | 1011.8 |
| 20260507080326 | 36 | 265 | 4.0 | 4.0 | 0.00 | 0.00 | 0.00 | 74 | 1011.9 |
| 20260507075835 | 37 | 360 | 3.0 | 4.0 | 0.00 | 0.00 | 0.00 | 74 | 1011.9 |
| 20260507075325 | 37 | 265 | 2.0 | 3.0 | 0.00 | 0.00 | 0.00 | 73 | 1012.0 |
| 20260507074836 | 37 | 264 | 2.0 | 5.0 | 0.00 | 0.00 | 0.00 | 73 | 1011.9 |
| 20260507074348 | 37 | 264 | 2.0 | 5.0 | 0.00 | 0.00 | 0.00 | 73 | 1011.9 |
| 20260507073851 | 37 | 264 | 3.0 | 5.0 | 0.00 | 0.00 | 0.00 | 73 | 1012.0 |
| 20260507073321 | 37 | 262 | 1.0 | 4.0 | 0.00 | 0.00 | 0.00 | 73 | 1012.1 |
| 20260507072830 | 37 | 264 | 2.0 | 4.0 | 0.00 | 0.00 | 0.00 | 73 | 1012.1 |
| 20260507072406 | 37 | 264 | 2.0 | 4.0 | 0.00 | 0.00 | 0.00 | 72 | 1012.3 |
| 20260507071836 | 37 | 264 | 3.0 | 4.0 | 0.00 | 0.00 | 0.00 | 72 | 1012.3 |
| 20260507071327 | 38 | 264 | 3.0 | 4.0 | 0.00 | 0.00 | 0.00 | 71 | 1012.3 |
| 20260507070835 | 38 | 263 | 1.0 | 4.0 | 0.00 | 0.00 | 0.00 | 70 | 1012.3 |
| 20260507070326 | 38 | 263 | 0.0 | 0.0 | 0.00 | 0.00 | 0.00 | 70 | 1012.2 |
| 20260507065837 | 38 | 263 | 0.0 | 0.0 | 0.00 | 0.00 | 0.00 | 70 | 1012.2 |
| 20260507065329 | 38 | 263 | 0.0 | 3.0 | 0.00 | 0.00 | 0.00 | 70 | 1012.3 |
| 20260507064821 | 38 | 263 | 2.0 | 3.0 | 0.00 | 0.00 | 0.00 | 70 | 1012.3 |
| 20260507064331 | 38 | 360 | 2.0 | 3.0 | 0.00 | 0.00 | 0.00 | 70 | 1012.2 |
| 20260507063839 | 38 | 263 | 2.0 | 3.0 | 0.00 | 0.00 | 0.00 | 69 | 1012.5 |
| 20260507063329 | 39 | 263 | 1.0 | 3.0 | 0.00 | 0.00 | 0.00 | 68 | 1012.4 |
| 20260507062839 | 39 | 263 | 2.0 | 4.0 | 0.00 | 0.00 | 0.00 | 67 | 1012.4 |
| 20260507062330 | 39 | 263 | 3.0 | 4.0 | 0.00 | 0.00 | 0.00 | 67 | 1012.4 |
| 20260507061840 | 39 | 263 | 2.0 | 5.0 | 0.00 | 0.00 | 0.00 | 67 | 1012.4 |
| 20260507061330 | 39 | 263 | 1.0 | 6.0 | 0.00 | 0.00 | 0.00 | 67 | 1012.5 |
| 20260507060838 | 39 | 360 | 2.0 | 6.0 | 0.00 | 0.00 | 0.00 | 67 | 1012.5 |
| 20260507060329 | 39 | 360 | 3.0 | 4.0 | 0.00 | 0.00 | 0.00 | 68 | 1012.5 |
| 20260507055839 | 39 | 360 | 2.0 | 4.0 | 0.00 | 0.00 | 0.00 | 67 | 1012.4 |
| 20260507055329 | 39 | 360 | 2.0 | 4.0 | 0.00 | 0.00 | 0.00 | 66 | 1012.3 |
| 20260507054834 | 39 | 360 | 2.0 | 4.0 | 0.00 | 0.00 | 0.00 | 66 | 1012.2 |
| 20260507054325 | 40 | 360 | 2.0 | 4.0 | 0.00 | 0.00 | 0.00 | 65 | 1012.3 |
| 20260507053834 | 40 | 360 | 2.0 | 4.0 | 0.00 | 0.00 | 0.00 | 65 | 1012.3 |
| 20260507053323 | 40 | 360 | 1.0 | 3.0 | 0.00 | 0.00 | 0.00 | 65 | 1012.4 |
| 20260507052834 | 40 | 360 | 2.0 | 3.0 | 0.00 | 0.00 | 0.00 | 64 | 1012.4 |
| 20260507052324 | 40 | 360 | 1.0 | 3.0 | 0.00 | 0.00 | 0.00 | 64 | 1012.4 |
| 20260507051833 | 41 | 360 | 2.0 | 3.0 | 0.00 | 0.00 | 0.00 | 63 | 1012.4 |
| 20260507051324 | 41 | 360 | 2.0 | 3.0 | 0.00 | 0.00 | 0.00 | 63 | 1012.5 |
| 20260507050833 | 41 | 360 | 1.0 | 4.0 | 0.00 | 0.00 | 0.00 | 62 | 1012.4 |
| 20260507050343 | 41 | 360 | 2.0 | 4.0 | 0.00 | 0.00 | 0.00 | 61 | 1012.4 |
| 20260507045826 | 41 | 360 | 2.0 | 4.0 | 0.00 | 0.00 | 0.00 | 61 | 1012.5 |
| 20260507045336 | 42 | 360 | 2.0 | 4.0 | 0.00 | 0.00 | 0.00 | 61 | 1012.4 |
| 20260507044824 | 42 | 360 | 2.0 | 4.0 | 0.00 | 0.00 | 0.00 | 60 | 1012.4 |
| 20260507044335 | 42 | 360 | 0.0 | 0.0 | 0.00 | 0.00 | 0.00 | 60 | 1012.4 |
| 20260507043909 | 42 | 360 | 0.0 | 3.0 | 0.00 | 0.00 | 0.00 | 59 | 1012.4 |
| 20260507043358 | 42 | 360 | 0.0 | 3.0 | 0.00 | 0.00 | 0.00 | 59 | 1012.4 |
| 20260507042826 | 43 | 360 | 2.0 | 3.0 | 0.00 | 0.00 | 0.00 | 58 | 1012.4 |
| 20260507042335 | 43 | 9 | 1.0 | 3.0 | 0.00 | 0.00 | 0.00 | 58 | 1012.4 |
| 20260507041846 | 43 | 9 | 1.0 | 5.0 | 0.00 | 0.00 | 0.00 | 57 | 1012.3 |
| 20260507041350 | 43 | 9 | 1.0 | 5.0 | 0.00 | 0.00 | 0.00 | 57 | 1012.3 |
| 20260507040837 | 43 | 5 | 3.0 | 5.0 | 0.00 | 0.00 | 0.00 | 56 | 1012.3 |
| 20260507040326 | 43 | 360 | 2.0 | 5.0 | 0.00 | 0.00 | 0.00 | 56 | 1012.3 |
| 20260507035833 | 44 | 9 | 1.0 | 5.0 | 0.00 | 0.00 | 0.00 | 56 | 1012.5 |
| 20260507035341 | 44 | 9 | 2.0 | 6.0 | 0.00 | 0.00 | 0.00 | 55 | 1012.5 |
| 20260507034829 | 44 | 360 | 2.0 | 6.0 | 0.00 | 0.00 | 0.00 | 55 | 1012.4 |
| 20260507034340 | 44 | 360 | 2.0 | 9.0 | 0.00 | 0.00 | 0.00 | 55 | 1012.4 |
| 20260507033848 | 44 | 360 | 2.0 | 9.0 | 0.00 | 0.00 | 0.00 | 54 | 1012.6 |
| 20260507033337 | 44 | 360 | 4.0 | 7.0 | 0.00 | 0.00 | 0.00 | 54 | 1012.6 |
| 20260507032825 | 45 | 360 | 3.0 | 8.0 | 0.00 | 0.00 | 0.00 | 54 | 1012.7 |
| 20260507032335 | 45 | 360 | 3.0 | 8.0 | 0.00 | 0.00 | 0.00 | 53 | 1012.7 |
| 20260507031824 | 45 | 360 | 3.0 | 9.0 | 0.00 | 0.00 | 0.00 | 53 | 1012.7 |
| 20260507031333 | 45 | 360 | 4.0 | 9.0 | 0.00 | 0.00 | 0.00 | 52 | 1012.6 |
| 20260507030838 | 45 | 360 | 3.0 | 11.0 | 0.00 | 0.00 | 0.00 | 52 | 1012.6 |
| 20260507030347 | 45 | 16 | 6.0 | 11.0 | 0.00 | 0.00 | 0.00 | 51 | 1012.6 |
| 20260507025835 | 45 | 360 | 6.0 | 9.0 | 0.00 | 0.00 | 0.00 | 51 | 1012.5 |
| 20260507025324 | 45 | 360 | 4.0 | 10.0 | 0.00 | 0.00 | 0.00 | 51 | 1012.5 |
| 20260507024832 | 45 | 360 | 7.0 | 10.0 | 0.00 | 0.00 | 0.00 | 50 | 1012.6 |
| 20260507024340 | 46 | 360 | 5.0 | 10.0 | 0.00 | 0.00 | 0.00 | 50 | 1012.5 |
| 20260507023847 | 46 | 360 | 4.0 | 12.0 | 0.00 | 0.00 | 0.00 | 50 | 1012.3 |
| 20260507023357 | 46 | 360 | 5.0 | 12.0 | 0.00 | 0.00 | 0.00 | 50 | 1012.2 |
| 20260507022845 | 46 | 360 | 4.0 | 9.0 | 0.00 | 0.00 | 0.00 | 50 | 1012.1 |
| 20260507022333 | 46 | 360 | 4.0 | 10.0 | 0.00 | 0.00 | 0.00 | 49 | 1012.1 |
| 20260507021841 | 46 | 360 | 6.0 | 12.0 | 0.00 | 0.00 | 0.00 | 49 | 1012.1 |
| 20260507021332 | 46 | 240 | 5.0 | 12.0 | 0.00 | 0.00 | 0.00 | 49 | 1012.0 |
| 20260507020822 | 46 | 360 | 4.0 | 9.0 | 0.00 | 0.00 | 0.00 | 49 | 1011.9 |
| 20260507020358 | 46 | 360 | 4.0 | 9.0 | 0.00 | 0.00 | 0.00 | 49 | 1011.9 |
| 20260507015825 | 46 | 360 | 5.0 | 12.0 | 0.00 | 0.00 | 0.00 | 48 | 1012.0 |
| 20260507015330 | 47 | 360 | 6.0 | 13.0 | 0.00 | 0.00 | 0.00 | 48 | 1011.9 |
| 20260507014839 | 47 | 360 | 5.0 | 13.0 | 0.00 | 0.00 | 0.00 | 48 | 1011.9 |
| 20260507014329 | 47 | 241 | 6.0 | 12.0 | 0.00 | 0.00 | 0.00 | 48 | 1011.9 |
| 20260507013835 | 47 | 360 | 5.0 | 12.0 | 0.00 | 0.00 | 0.00 | 48 | 1011.8 |
| 20260507013324 | 47 | 360 | 4.0 | 11.0 | 0.00 | 0.00 | 0.00 | 48 | 1011.7 |
| 20260507012901 | 47 | 360 | 7.0 | 11.0 | 0.00 | 0.00 | 0.00 | 47 | 1011.7 |
| 20260507012328 | 47 | 360 | 6.0 | 10.0 | 0.00 | 0.00 | 0.00 | 48 | 1011.7 |
| 20260507011903 | 48 | 360 | 3.0 | 12.0 | 0.00 | 0.00 | 0.00 | 48 | 1011.7 |
| 20260507011331 | 48 | 360 | 6.0 | 12.0 | 0.00 | 0.00 | 0.00 | 47 | 1011.6 |
| 20260507010836 | 48 | 360 | 5.0 | 11.0 | 0.00 | 0.00 | 0.00 | 46 | 1011.5 |
| 20260507010325 | 48 | 360 | 7.0 | 14.0 | 0.00 | 0.00 | 0.00 | 46 | 1011.4 |
| 20260507005901 | 49 | 360 | 5.0 | 14.0 | 0.00 | 0.00 | 0.00 | 46 | 1011.4 |
| 20260507005329 | 49 | 360 | 6.0 | 13.0 | 0.00 | 0.00 | 0.00 | 46 | 1011.4 |
| 20260507004838 | 49 | 261 | 5.0 | 17.0 | 0.00 | 0.00 | 0.00 | 46 | 1011.3 |
| 20260507004327 | 49 | 360 | 9.0 | 17.0 | 0.00 | 0.00 | 0.00 | 45 | 1011.3 |
| 20260507003836 | 50 | 360 | 7.0 | 15.0 | 0.00 | 0.00 | 0.00 | 45 | 1011.3 |
| 20260507003324 | 50 | 360 | 9.0 | 17.0 | 0.00 | 0.00 | 0.00 | 44 | 1011.3 |
| 20260507002833 | 50 | 360 | 9.0 | 14.0 | 0.00 | 0.00 | 0.00 | 44 | 1011.2 |
| 20260507002341 | 50 | 360 | 8.0 | 18.0 | 0.00 | 0.00 | 0.00 | 45 | 1011.0 |
| 20260507001829 | 51 | 360 | 7.0 | 19.0 | 0.00 | 0.00 | 0.00 | 44 | 1011.0 |
| 20260507001339 | 51 | 360 | 6.0 | 19.0 | 0.00 | 0.00 | 0.00 | 44 | 1010.9 |
| 20260507000825 | 51 | 360 | 6.0 | 16.0 | 0.00 | 0.00 | 0.00 | 44 | 1010.8 |
| 20260507000333 | 51 | 360 | 8.0 | 16.0 | 0.00 | 0.00 | 0.00 | 44 | 1010.8 |
| 20260506235823 | 51 | 360 | 5.0 | 20.0 | 0.00 | 0.00 | 0.00 | 45 | 1010.8 |
| 20260506235331 | 51 | 360 | 8.0 | 20.0 | 0.00 | 0.00 | 0.00 | 44 | 1010.8 |
| 20260506234841 | 51 | 360 | 6.0 | 15.0 | 0.00 | 0.00 | 0.00 | 44 | 1010.6 |
| 20260506234410 | 52 | 360 | 9.0 | 15.0 | 0.00 | 0.00 | 0.00 | 43 | 1010.5 |
| 20260506233856 | 52 | 360 | 6.0 | 15.0 | 0.00 | 0.00 | 0.00 | 44 | 1010.6 |
| 20260506233322 | 52 | 360 | 6.0 | 15.0 | 0.00 | 0.00 | 0.00 | 43 | 1010.6 |
| 20260506232831 | 52 | 360 | 5.0 | 12.0 | 0.00 | 0.00 | 0.00 | 43 | 1010.5 |
| 20260506232322 | 52 | 360 | 3.0 | 15.0 | 0.00 | 0.00 | 0.00 | 43 | 1010.5 |
| 20260506231859 | 52 | 360 | 9.0 | 15.0 | 0.00 | 0.00 | 0.00 | 42 | 1010.6 |
| 20260506231329 | 52 | 360 | 5.0 | 14.0 | 0.00 | 0.00 | 0.00 | 43 | 1010.5 |
| 20260506230838 | 52 | 360 | 7.0 | 14.0 | 0.00 | 0.00 | 0.00 | 42 | 1010.5 |
| 20260506230328 | 52 | 360 | 7.0 | 18.0 | 0.00 | 0.00 | 0.00 | 43 | 1010.4 |
| 20260506225838 | 52 | 360 | 8.0 | 18.0 | 0.00 | 0.00 | 0.00 | 42 | 1010.4 |
| 20260506225348 | 52 | 360 | 9.0 | 17.0 | 0.00 | 0.00 | 0.00 | 41 | 1010.4 |
| 20260506224858 | 53 | 360 | 8.0 | 13.0 | 0.00 | 0.00 | 0.00 | 42 | 1010.3 |
| 20260506224327 | 53 | 360 | 6.0 | 15.0 | 0.00 | 0.00 | 0.00 | 42 | 1010.4 |
| 20260506223836 | 53 | 360 | 8.0 | 15.0 | 0.00 | 0.00 | 0.00 | 42 | 1010.3 |
| 20260506223325 | 53 | 360 | 6.0 | 11.0 | 0.00 | 0.00 | 0.00 | 43 | 1010.2 |
| 20260506222834 | 53 | 360 | 3.0 | 14.0 | 0.00 | 0.00 | 0.00 | 42 | 1010.1 |
| 20260506222321 | 53 | 360 | 5.0 | 14.0 | 0.00 | 0.00 | 0.00 | 42 | 1010.1 |
| 20260506221832 | 53 | 260 | 5.0 | 18.0 | 0.00 | 0.00 | 0.00 | 41 | 1010.2 |
| 20260506221324 | 53 | 360 | 7.0 | 14.0 | 0.00 | 0.00 | 0.00 | 41 | 1010.1 |
| 20260506220827 | 53 | 360 | 4.0 | 14.0 | 0.00 | 0.00 | 0.00 | 42 | 1010.0 |
| 20260506220336 | 53 | 360 | 5.0 | 14.0 | 0.00 | 0.00 | 0.00 | 41 | 1010.0 |
| 20260506215824 | 53 | 360 | 6.0 | 12.0 | 0.00 | 0.00 | 0.00 | 41 | 1009.9 |
| 20260506215333 | 54 | 360 | 6.0 | 15.0 | 0.00 | 0.00 | 0.00 | 41 | 1009.8 |
| 20260506214823 | 54 | 360 | 6.0 | 15.0 | 0.00 | 0.00 | 0.00 | 40 | 1010.0 |
| 20260506214334 | 54 | 360 | 9.0 | 17.0 | 0.00 | 0.00 | 0.00 | 41 | 1009.9 |
| 20260506213822 | 53 | 360 | 10.0 | 17.0 | 0.00 | 0.00 | 0.00 | 40 | 1009.8 |
| 20260506213332 | 54 | 360 | 7.0 | 15.0 | 0.00 | 0.00 | 0.00 | 40 | 1009.9 |
| 20260506212822 | 54 | 360 | 6.0 | 15.0 | 0.00 | 0.00 | 0.00 | 41 | 1009.8 |
| 20260506212331 | 55 | 360 | 10.0 | 17.0 | 0.00 | 0.00 | 0.00 | 41 | 1009.7 |
| 20260506211840 | 55 | 360 | 8.0 | 17.0 | 0.00 | 0.00 | 0.00 | 41 | 1009.7 |
| 20260506211351 | 54 | 360 | 7.0 | 16.0 | 0.00 | 0.00 | 0.00 | 40 | 1009.7 |
| 20260506210839 | 54 | 360 | 7.0 | 17.0 | 0.00 | 0.00 | 0.00 | 40 | 1009.7 |
| 20260506210327 | 55 | 360 | 6.0 | 17.0 | 0.00 | 0.00 | 0.00 | 40 | 1009.7 |
| 20260506205835 | 55 | 360 | 7.0 | 14.0 | 0.00 | 0.00 | 0.00 | 40 | 1009.7 |
| 20260506205321 | 54 | 360 | 8.0 | 14.0 | 0.00 | 0.00 | 0.00 | 39 | 1009.7 |
| 20260506204831 | 55 | 360 | 8.0 | 16.0 | 0.00 | 0.00 | 0.00 | 39 | 1009.7 |
| 20260506204342 | 54 | 360 | 8.0 | 16.0 | 0.00 | 0.00 | 0.00 | 39 | 1009.7 |
| 20260506203831 | 55 | 360 | 9.0 | 15.0 | 0.00 | 0.00 | 0.00 | 38 | 1009.7 |
| 20260506203337 | 54 | 360 | 9.0 | 15.0 | 0.00 | 0.00 | 0.00 | 38 | 1009.7 |
| 20260506202823 | 54 | 360 | 7.0 | 18.0 | 0.00 | 0.00 | 0.00 | 38 | 1009.9 |
| 20260506202330 | 54 | 360 | 9.0 | 18.0 | 0.00 | 0.00 | 0.00 | 39 | 1009.9 |
| 20260506201842 | 54 | 231 | 8.0 | 18.0 | 0.00 | 0.00 | 0.00 | 39 | 1009.9 |
| 20260506201354 | 54 | 360 | 8.0 | 14.0 | 0.00 | 0.00 | 0.00 | 39 | 1009.9 |
| 20260506200909 | 55 | 360 | 7.0 | 20.0 | 0.00 | 0.00 | 0.00 | 38 | 1009.9 |
| 20260506200357 | 55 | 360 | 10.0 | 20.0 | 0.00 | 0.00 | 0.00 | 37 | 1009.9 |
| 20260506195827 | 55 | 360 | 9.0 | 17.0 | 0.00 | 0.00 | 0.00 | 37 | 1010.0 |
| 20260506195339 | 55 | 360 | 12.0 | 18.0 | 0.00 | 0.00 | 0.00 | 37 | 1010.1 |
| 20260506194827 | 55 | 360 | 11.0 | 17.0 | 0.00 | 0.00 | 0.00 | 36 | 1010.0 |
| 20260506194338 | 55 | 360 | 11.0 | 17.0 | 0.00 | 0.00 | 0.00 | 38 | 1010.1 |
| 20260506193845 | 55 | 360 | 5.0 | 13.0 | 0.00 | 0.00 | 0.00 | 38 | 1010.1 |
| 20260506193335 | 55 | 196 | 6.0 | 16.0 | 0.00 | 0.00 | 0.00 | 39 | 1010.1 |
| 20260506192823 | 55 | 360 | 9.0 | 21.0 | 0.00 | 0.00 | 0.00 | 37 | 1010.1 |
| 20260506192334 | 55 | 360 | 12.0 | 21.0 | 0.00 | 0.00 | 0.00 | 38 | 1010.2 |
| 20260506191825 | 55 | 360 | 9.0 | 14.0 | 0.00 | 0.00 | 0.00 | 38 | 1010.3 |
| 20260506191403 | 54 | 360 | 8.0 | 13.0 | 0.00 | 0.00 | 0.00 | 38 | 1010.3 |
| 20260506190846 | 54 | 360 | 8.0 | 12.0 | 0.00 | 0.00 | 0.00 | 36 | 1010.3 |
| 20260506190336 | 54 | 235 | 6.0 | 13.0 | 0.00 | 0.00 | 0.00 | 36 | 1010.3 |
| 20260506185826 | 55 | 360 | 6.0 | 13.0 | 0.00 | 0.00 | 0.00 | 36 | 1010.3 |
| 20260506185359 | 54 | 360 | 5.0 | 16.0 | 0.00 | 0.00 | 0.00 | 39 | 1010.3 |
| 20260506184828 | 54 | 360 | 9.0 | 16.0 | 0.00 | 0.00 | 0.00 | 37 | 1010.3 |
| 20260506184339 | 55 | 360 | 7.0 | 19.0 | 0.00 | 0.00 | 0.00 | 38 | 1010.2 |
| 20260506183828 | 55 | 360 | 13.0 | 19.0 | 0.00 | 0.00 | 0.00 | 38 | 1010.3 |
| 20260506183336 | 54 | 360 | 9.0 | 17.0 | 0.00 | 0.00 | 0.00 | 39 | 1010.2 |
| 20260506182827 | 54 | 360 | 5.0 | 16.0 | 0.00 | 0.00 | 0.00 | 37 | 1010.2 |
| 20260506182336 | 54 | 360 | 8.0 | 16.0 | 0.00 | 0.00 | 0.00 | 38 | 1010.3 |
| 20260506181827 | 54 | 360 | 9.0 | 17.0 | 0.00 | 0.00 | 0.00 | 37 | 1010.2 |
| 20260506181339 | 54 | 360 | 9.0 | 20.0 | 0.00 | 0.00 | 0.00 | 36 | 1010.3 |
| 20260506180823 | 54 | 360 | 11.0 | 20.0 | 0.00 | 0.00 | 0.00 | 37 | 1010.3 |
| 20260506180332 | 54 | 360 | 14.0 | 19.0 | 0.00 | 0.00 | 0.00 | 38 | 1010.3 |
| 20260506175841 | 53 | 360 | 5.0 | 13.0 | 0.00 | 0.00 | 0.00 | 40 | 1010.3 |
| 20260506175331 | 53 | 360 | 8.0 | 15.0 | 0.00 | 0.00 | 0.00 | 37 | 1010.4 |
| 20260506174821 | 53 | 360 | 8.0 | 17.0 | 0.00 | 0.00 | 0.00 | 38 | 1010.4 |
| 20260506174334 | 53 | 190 | 9.0 | 19.0 | 0.00 | 0.00 | 0.00 | 37 | 1010.4 |
| 20260506173839 | 53 | 360 | 7.0 | 19.0 | 0.00 | 0.00 | 0.00 | 38 | 1010.4 |
| 20260506173329 | 54 | 360 | 10.0 | 18.0 | 0.00 | 0.00 | 0.00 | 37 | 1010.4 |
| 20260506172839 | 54 | 360 | 7.0 | 15.0 | 0.00 | 0.00 | 0.00 | 39 | 1010.4 |
| 20260506172330 | 53 | 360 | 10.0 | 18.0 | 0.00 | 0.00 | 0.00 | 37 | 1010.4 |
| 20260506171833 | 53 | 360 | 6.0 | 18.0 | 0.00 | 0.00 | 0.00 | 39 | 1010.6 |
| 20260506171325 | 53 | 360 | 7.0 | 13.0 | 0.00 | 0.00 | 0.00 | 39 | 1010.6 |
| 20260506170832 | 53 | 248 | 6.0 | 15.0 | 0.00 | 0.00 | 0.00 | 38 | 1010.7 |
| 20260506170343 | 53 | 360 | 8.0 | 17.0 | 0.00 | 0.00 | 0.00 | 37 | 1010.8 |
| 20260506165832 | 53 | 360 | 10.0 | 18.0 | 0.00 | 0.00 | 0.00 | 38 | 1010.8 |
| 20260506165341 | 53 | 360 | 6.0 | 18.0 | 0.00 | 0.00 | 0.00 | 37 | 1010.7 |
| 20260506164827 | 53 | 260 | 10.0 | 18.0 | 0.00 | 0.00 | 0.00 | 37 | 1010.7 |
| 20260506164403 | 53 | 360 | 8.0 | 18.0 | 0.00 | 0.00 | 0.00 | 36 | 1010.6 |
| 20260506163846 | 53 | 360 | 9.0 | 17.0 | 0.00 | 0.00 | 0.00 | 36 | 1010.7 |
| 20260506163352 | 53 | 360 | 5.0 | 20.0 | 0.00 | 0.00 | 0.00 | 38 | 1010.8 |
| 20260506162840 | 53 | 232 | 8.0 | 20.0 | 0.00 | 0.00 | 0.00 | 39 | 1010.6 |
| 20260506162330 | 53 | 360 | 10.0 | 18.0 | 0.00 | 0.00 | 0.00 | 38 | 1010.5 |
| 20260506161841 | 53 | 360 | 12.0 | 18.0 | 0.00 | 0.00 | 0.00 | 38 | 1010.8 |
| 20260506161351 | 53 | 360 | 4.0 | 16.0 | 0.00 | 0.00 | 0.00 | 39 | 1010.7 |
| 20260506160837 | 52 | 360 | 7.0 | 16.0 | 0.00 | 0.00 | 0.00 | 39 | 1010.6 |
| 20260506160328 | 52 | 360 | 8.0 | 18.0 | 0.00 | 0.00 | 0.00 | 40 | 1010.7 |
| 20260506155835 | 51 | 360 | 9.0 | 18.0 | 0.00 | 0.00 | 0.00 | 41 | 1010.7 |
| 20260506155324 | 51 | 360 | 9.0 | 14.0 | 0.00 | 0.00 | 0.00 | 42 | 1010.7 |
| 20260506154829 | 52 | 360 | 11.0 | 16.0 | 0.00 | 0.00 | 0.00 | 42 | 1010.6 |
| 20260506154340 | 52 | 360 | 8.0 | 21.0 | 0.00 | 0.00 | 0.00 | 42 | 1010.7 |
| 20260506153825 | 51 | 360 | 11.0 | 21.0 | 0.00 | 0.00 | 0.00 | 42 | 1010.6 |
| 20260506153332 | 51 | 360 | 9.0 | 18.0 | 0.00 | 0.00 | 0.00 | 43 | 1010.7 |
| 20260506152847 | 51 | 360 | 6.0 | 15.0 | 0.00 | 0.00 | 0.00 | 43 | 1010.9 |
| 20260506152351 | 51 | 360 | 8.0 | 14.0 | 0.00 | 0.00 | 0.00 | 46 | 1010.8 |
| 20260506151840 | 51 | 360 | 7.0 | 16.0 | 0.00 | 0.00 | 0.00 | 44 | 1010.7 |
| 20260506151332 | 51 | 360 | 10.0 | 17.0 | 0.00 | 0.00 | 0.00 | 46 | 1010.9 |
| 20260506150839 | 51 | 360 | 10.0 | 17.0 | 0.00 | 0.00 | 0.00 | 46 | 1010.8 |
| 20260506150329 | 51 | 360 | 8.0 | 14.0 | 0.00 | 0.00 | 0.00 | 46 | 1010.9 |
| 20260506145837 | 51 | 360 | 4.0 | 13.0 | 0.00 | 0.00 | 0.00 | 47 | 1010.8 |
| 20260506145326 | 51 | 360 | 7.0 | 13.0 | 0.00 | 0.00 | 0.00 | 46 | 1010.9 |
| 20260506144903 | 51 | 360 | 9.0 | 14.0 | 0.00 | 0.00 | 0.00 | 46 | 1010.9 |
| 20260506144352 | 51 | 360 | 5.0 | 14.0 | 0.00 | 0.00 | 0.00 | 48 | 1010.9 |
| 20260506143838 | 51 | 360 | 8.0 | 14.0 | 0.00 | 0.00 | 0.00 | 46 | 1010.9 |
| 20260506143342 | 51 | 360 | 7.0 | 16.0 | 0.00 | 0.00 | 0.00 | 45 | 1011.0 |
| 20260506142851 | 50 | 175 | 11.0 | 16.0 | 0.00 | 0.00 | 0.00 | 47 | 1011.0 |
| 20260506142337 | 50 | 360 | 5.0 | 15.0 | 0.00 | 0.00 | 0.00 | 49 | 1010.9 |
| 20260506141827 | 50 | 360 | 11.0 | 15.0 | 0.00 | 0.00 | 0.00 | 47 | 1010.9 |
| 20260506141337 | 50 | 360 | 8.0 | 14.0 | 0.00 | 0.00 | 0.00 | 47 | 1010.8 |
| 20260506140826 | 50 | 360 | 5.0 | 12.0 | 0.00 | 0.00 | 0.00 | 47 | 1010.8 |
| 20260506140333 | 50 | 360 | 8.0 | 12.0 | 0.00 | 0.00 | 0.00 | 46 | 1010.8 |
| 20260506135841 | 50 | 360 | 4.0 | 10.0 | 0.00 | 0.00 | 0.00 | 46 | 1010.8 |
| 20260506135330 | 50 | 360 | 5.0 | 9.0 | 0.00 | 0.00 | 0.00 | 48 | 1010.7 |
| 20260506134838 | 49 | 360 | 4.0 | 8.0 | 0.00 | 0.00 | 0.00 | 46 | 1010.6 |
| 20260506134348 | 49 | 360 | 4.0 | 8.0 | 0.00 | 0.00 | 0.00 | 52 | 1010.5 |
| 20260506133834 | 49 | 360 | 5.0 | 8.0 | 0.00 | 0.00 | 0.00 | 50 | 1010.5 |
| 20260506133324 | 49 | 360 | 3.0 | 8.0 | 0.00 | 0.00 | 0.00 | 53 | 1010.3 |
| 20260506132834 | 48 | 360 | 4.0 | 8.0 | 0.00 | 0.00 | 0.00 | 53 | 1010.4 |
| 20260506132323 | 48 | 360 | 4.0 | 6.0 | 0.00 | 0.00 | 0.00 | 56 | 1010.4 |
| 20260506131830 | 48 | 360 | 4.0 | 6.0 | 0.00 | 0.00 | 0.00 | 55 | 1010.4 |
| 20260506131342 | 48 | 360 | 2.0 | 4.0 | 0.00 | 0.00 | 0.00 | 57 | 1010.3 |
| 20260506130828 | 47 | 360 | 1.0 | 6.0 | 0.00 | 0.00 | 0.00 | 61 | 1010.3 |
| 20260506130337 | 47 | 360 | 3.0 | 6.0 | 0.00 | 0.00 | 0.00 | 62 | 1010.3 |
| 20260506125825 | 46 | 360 | 1.0 | 5.0 | 0.00 | 0.00 | 0.00 | 65 | 1010.4 |
| 20260506125330 | 46 | 360 | 2.0 | 5.0 | 0.00 | 0.00 | 0.00 | 66 | 1010.3 |
| 20260506124839 | 46 | 360 | 0.0 | 3.0 | 0.00 | 0.00 | 0.00 | 69 | 1010.2 |
| 20260506124329 | 45 | 360 | 2.0 | 4.0 | 0.00 | 0.00 | 0.00 | 69 | 1010.2 |
| 20260506123836 | 45 | 360 | 2.0 | 4.0 | 0.00 | 0.00 | 0.00 | 70 | 1010.3 |
| 20260506123347 | 45 | 360 | 0.0 | 0.0 | 0.00 | 0.00 | 0.00 | 70 | 1010.1 |
| 20260506122855 | 45 | 360 | 0.0 | 0.0 | 0.00 | 0.00 | 0.00 | 71 | 1010.1 |
| 20260506122322 | 44 | 360 | 0.0 | 0.0 | 0.00 | 0.00 | 0.00 | 71 | 1009.9 |
| 20260506121831 | 44 | 360 | 0.0 | 0.0 | 0.00 | 0.00 | 0.00 | 71 | 1009.9 |
| 20260506121323 | 43 | 360 | 0.0 | 0.0 | 0.00 | 0.00 | 0.00 | 74 | 1009.8 |
| 20260506120858 | 43 | 360 | 0.0 | 0.0 | 0.00 | 0.00 | 0.00 | 73 | 1009.7 |
| 20260506120326 | 42 | 360 | 0.0 | 0.0 | 0.00 | 0.00 | 0.00 | 75 | 1009.7 |
| 20260506115834 | 42 | 360 | 0.0 | 0.0 | 0.00 | 0.00 | 0.00 | 75 | 1009.7 |
| 20260506115323 | 42 | 360 | 0.0 | 0.0 | 0.00 | 0.00 | 0.00 | 73 | 1009.7 |
| 20260506114833 | 42 | 360 | 0.0 | 0.0 | 0.00 | 0.00 | 0.00 | 73 | 1009.7 |
| 20260506114324 | 41 | 360 | 0.0 | 0.0 | 0.00 | 0.00 | 0.00 | 74 | 1009.8 |
| 20260506113859 | 41 | 360 | 0.0 | 0.0 | 0.00 | 0.00 | 0.00 | 74 | 1009.8 |
| 20260506113328 | 41 | 360 | 0.0 | 0.0 | 0.00 | 0.00 | 0.00 | 75 | 1009.7 |
| 20260506112837 | 41 | 360 | 0.0 | 0.0 | 0.00 | 0.00 | 0.00 | 76 | 1009.7 |
| 20260506112409 | 41 | 360 | 0.0 | 0.0 | 0.00 | 0.00 | 0.00 | 77 | 1009.8 |
| 20260506111856 | 41 | 360 | 0.0 | 0.0 | 0.00 | 0.00 | 0.00 | 76 | 1009.7 |
| 20260506111327 | 40 | 360 | 0.0 | 2.0 | 0.00 | 0.00 | 0.00 | 76 | 1009.7 |
| 20260506110834 | 40 | 360 | 0.0 | 2.0 | 0.00 | 0.00 | 0.00 | 75 | 1009.5 |
| 20260506110324 | 40 | 360 | 1.0 | 3.0 | 0.00 | 0.00 | 0.00 | 76 | 1009.5 |
| 20260506105834 | 40 | 360 | 1.0 | 3.0 | 0.00 | 0.00 | 0.00 | 75 | 1009.4 |
| 20260506105322 | 40 | 360 | 1.0 | 3.0 | 0.00 | 0.00 | 0.00 | 74 | 1009.3 |
| 20260506104832 | 40 | 360 | 0.0 | 3.0 | 0.00 | 0.00 | 0.00 | 74 | 1009.1 |
| 20260506104342 | 40 | 360 | 2.0 | 3.0 | 0.00 | 0.00 | 0.00 | 74 | 1009.0 |
| 20260506103848 | 41 | 360 | 2.0 | 3.0 | 0.00 | 0.00 | 0.00 | 73 | 1008.8 |
| 20260506103335 | 41 | 360 | 0.0 | 0.0 | 0.00 | 0.00 | 0.00 | 72 | 1008.7 |
| 20260506102825 | 41 | 360 | 0.0 | 0.0 | 0.00 | 0.00 | 0.00 | 72 | 1008.7 |
| 20260506102334 | 41 | 360 | 0.0 | 1.0 | 0.00 | 0.00 | 0.00 | 72 | 1008.7 |
| 20260506101845 | 41 | 360 | 0.0 | 1.0 | 0.00 | 0.00 | 0.00 | 72 | 1008.7 |
| 20260506101334 | 41 | 360 | 0.0 | 0.0 | 0.00 | 0.00 | 0.00 | 71 | 1008.6 |
| 20260506100823 | 41 | 360 | 0.0 | 0.0 | 0.00 | 0.00 | 0.00 | 71 | 1008.6 |
| 20260506100355 | 41 | 360 | 0.0 | 0.0 | 0.00 | 0.00 | 0.00 | 69 | 1008.7 |
| 20260506095820 | 41 | 360 | 0.0 | 0.0 | 0.00 | 0.00 | 0.00 | 69 | 1008.7 |
| 20260506095332 | 41 | 360 | 0.0 | 0.0 | 0.00 | 0.00 | 0.00 | 70 | 1008.7 |
| 20260506094822 | 42 | 360 | 0.0 | 0.0 | 0.00 | 0.00 | 0.00 | 70 | 1008.6 |
| 20260506094400 | 42 | 360 | 0.0 | 0.0 | 0.00 | 0.00 | 0.00 | 70 | 1008.6 |
| 20260506093847 | 42 | 360 | 0.0 | 0.0 | 0.00 | 0.00 | 0.00 | 69 | 1008.7 |
| 20260506093335 | 42 | 360 | 0.0 | 0.0 | 0.00 | 0.00 | 0.00 | 68 | 1008.8 |
| 20260506092844 | 42 | 360 | 0.0 | 0.0 | 0.00 | 0.00 | 0.00 | 67 | 1008.8 |
| 20260506092333 | 42 | 360 | 0.0 | 0.0 | 0.00 | 0.00 | 0.00 | 68 | 1008.8 |
| 20260506091823 | 42 | 360 | 0.0 | 0.0 | 0.00 | 0.00 | 0.00 | 68 | 1008.9 |
| 20260506091334 | 42 | 360 | 0.0 | 0.0 | 0.00 | 0.00 | 0.00 | 68 | 1008.8 |
| 20260506090823 | 42 | 360 | 0.0 | 0.0 | 0.00 | 0.00 | 0.00 | 68 | 1008.8 |